User: anonymous   Login
Location: Unspecified
(0.0000°N, 0.0000°E)
Time: 23:44:32
(UTC+00:00)
Language:

Relay 2 - Orbit

View from above orbital plane
View from above orbital plane
View from above satellite
View from above satellite

Ground track
Ground track

The orbit data is extracted from the following two-line orbital elements,

1   737U 64003A   17348.85975822 -.00000022 +00000-0 +00000-0 0  9994
2   737 046.4425 241.1121 2586235 139.6280 242.8189 07.39537594456276
Epoch (UTC): 14 December 2017 20:38:03
Eccentricity: 0.2586235
inclination: 46.4425°
perigee height: 1872 km
apogee height: 7628 km
right ascension of ascending node: 241.1121°
argument of perigee: 139.6280°
revolutions per day: 7.39537594
mean anomaly at epoch: 242.8189°
orbit number at epoch: 45627

The dashed part of the orbit path shows where the satellite is in the earth's shadow,  

DLR